Content
SEND FEEDBACK

Daily
Averages
Monthly
Summary
Austria

INNSBRUCK, AUSTRIA


Home > Europe > Austria
Elevation: 1994 feet     Latitude: 47 15N     Longitude: 011 20E

WEATHER
 
SELECT A DAY
Number of Records: 311,500;   Date Range: 7/1/96 - 8/10/14
 
SHARE

PRINT THIS DATA

[ ← Previous Day ]
WEATHER ALMANAC - FEBRUARY 10, 2013
[ Next Day → ]
[ °C ]   °F
Weather ElementAverageHighLow
Temperature19.3 °F30.2 °F (3:20 pm)12.2 °F (7:50 am)
Dewpoint11.2 °F19.4 °F (2:50 am)8.6 °F (8:20 am)
Humidity71 %93 % (2:50 am)30 % (4:00 pm)
Barometer29.93 in30.16 in (7:00 am)29.77 in (10:50 pm)
Wind Speed3.5 mph6.9 mph (5:50 am)
Weather ElementAverage
Visibility7.2 mi
Wind DirectionSSE (166 °)

Weather ElementTotal
Precipitation---
Heating Degree Days43.8 (Base 65)
Averaged from 55 records on February 10, 2013
WEATHER CONDITIONS BREAKOUT
WIND DIRECTION BREAKOUT
WEATHER BY HOUR - FEBRUARY 10, 2013
[ °C ]   °F
Local TimeTemperatureDewpointHumidityBarometerVisibilityWind DirectionWind SpeedGust SpeedPrecipitationEventsConditions
12:50 AM21.2 °F15.8 °F80 %30.01 in1.2 miVariable1.2 mphSnowLight Snow
1:00 AM22.0 °F17.0 °F71 %30.14 in1.0 mi°2.2 mph
1:20 AM21.2 °F17.6 °F86 %30.01 in1.3 miWest (260°)2.3 mphSnowSnow
1:50 AM21.2 °F17.6 °F86 %30.01 in0.7 miVariable1.2 mphSnowSnow
2:20 AM21.2 °F17.6 °F86 %30.01 in1.4 miVariable2.3 mphSnowSnow
2:50 AM21.2 °F19.4 °F93 %29.98 in1.5 miVariable1.2 mphSnowSnow
3:20 AM21.2 °F15.8 °F80 %29.98 inSSE (160°)3.5 mphSnowSnow
3:50 AM19.4 °F14.0 °F80 %29.98 in3.7 miVariable2.3 mphSnowLight Snow
4:00 AM20.0 °F14.0 °F68 %30.13 in4.0 mi°2.2 mphSnowLight Snow
4:20 AM19.4 °F15.8 °F86 %29.98 in5.0 miVariable1.2 mphSnowLight Snow
4:50 AM19.4 °F15.8 °F86 %29.98 in3.7 miWest (260°)2.3 mphSnowLight Snow
5:20 AM19.4 °F14.0 °F80 %29.98 in6.2 miWest (280°)4.6 mphSnowLight Snow
5:50 AM17.6 °F12.2 °F79 %29.98 in6.2 miWest (260°)6.9 mphMostly Cloudy
6:20 AM17.6 °F12.2 °F79 %29.98 in6.2 miWest (280°)4.6 mphMostly Cloudy
6:50 AM15.8 °F12.2 °F86 %29.98 in6.2 miWNW (290°)4.6 mphScattered Clouds
7:00 AM16.0 °F11.0 °F74 %30.16 in12.0 miWNW (290°)4.5 mphPartly Cloudy
7:20 AM14.0 °F10.4 °F86 %29.98 in6.2 miWNW (290°)3.5 mphScattered Clouds
7:50 AM12.2 °F10.4 °F92 %30.01 in6.2 miWest (280°)3.5 mphScattered Clouds
8:20 AM14.0 °F8.6 °F79 %30.01 in6.2 miWest (270°)2.3 mphScattered Clouds
8:50 AM14.0 °F8.6 °F79 %30.01 in6.2 miWest (270°)3.5 mphScattered Clouds
9:20 AM15.8 °F8.6 °F73 %30.01 in6.2 miWest (260°)3.5 mphPartly Cloudy
9:50 AM15.8 °F8.6 °F73 %29.98 in6.2 miWest (260°)4.6 mphPartly Cloudy
10:00 AM16.0 °F9.0 °F62 %30.16 in19.0 miWest (260°)4.5 mphScattered Clouds
10:20 AM17.6 °F8.6 °F68 %29.98 in6.2 miWest (270°)6.9 mphPartly Cloudy
10:50 AM17.6 °F8.6 °F68 %29.98 in6.2 miWest (280°)6.9 mphPartly Cloudy
11:20 AM19.4 °F8.6 °F63 %29.98 in6.2 miWest (270°)6.9 mphPartly Cloudy
11:50 AM21.2 °F8.6 °F58 %29.95 in6.2 miWest (270°)4.6 mphPartly Cloudy
12:20 PM21.2 °F8.6 °F58 %29.95 in6.2 miWest (270°)5.8 mphPartly Cloudy
12:50 PM23.0 °F10.4 °F59 %29.92 in6.2 miWest (270°)5.8 mphPartly Cloudy
1:00 PM22.0 °F10.0 °F46 %30.05 in22.0 miWest (270°)6.7 mphScattered Clouds
1:20 PM24.8 °F8.6 °F50 %29.89 in6.2 miWest (280°)4.6 mphPartly Cloudy
1:50 PM26.6 °F10.4 °F51 %29.89 in6.2 miVariable1.2 mphPartly Cloudy
2:20 PM28.4 °F8.6 °F43 %29.86 in6.2 miVariable1.2 mphPartly Cloudy
2:50 PM28.4 °F8.6 °F43 %29.86 in6.2 miVariable1.2 mphPartly Cloudy
3:20 PM30.2 °F8.6 °F40 %29.86 inVariable1.2 mphClear
3:50 PM28.4 °F8.6 °F43 %29.83 inVariable2.3 mphClear
4:00 PM28.0 °F9.0 °F30 %29.95 in31.0 mi°2.2 mph
4:20 PM26.6 °F8.6 °F47 %29.83 inVariable2.3 mphClear
4:50 PM24.8 °F10.4 °F54 %29.83 inVariable1.2 mphClear
5:20 PM23.0 °F12.2 °F63 %29.83 inWSW (240°)3.5 mphClear
5:50 PM21.2 °F12.2 °F68 %29.83 inVariable2.3 mphClear
6:20 PM21.2 °F12.2 °F68 %29.83 inVariable2.3 mphClear
6:50 PM15.8 °F10.4 °F79 %29.83 inWest (260°)5.8 mphClear
7:00 PM17.0 °F10.0 °F64 %29.99 in19.0 miWest (260°)6.7 mphScattered Clouds
7:20 PM15.8 °F10.4 °F79 %29.83 inVariable1.2 mphClear
7:50 PM15.8 °F10.4 °F79 %29.83 inVariable1.2 mphClear
8:20 PM14.0 °F8.6 °F79 %29.80 inWest (270°)2.3 mphClear
8:50 PM15.8 °F10.4 °F79 %29.80 inVariable2.3 mphClear
9:20 PM14.0 °F10.4 °F86 %29.80 inWSW (250°)4.6 mphClear
9:50 PM14.0 °F10.4 °F86 %29.80 inSW (230°)4.6 mphClear
10:00 PM15.0 °F10.0 °F74 %29.97 in12.0 miSW (230°)4.5 mphPartly Cloudy
10:20 PM14.0 °F10.4 °F86 %29.80 inVariable3.5 mphClear
10:50 PM14.0 °F8.6 °F79 %29.77 inWest (260°)3.5 mphClear
11:20 PM12.2 °F8.6 °F85 %29.77 in5.6 miWest (260°)3.5 mph
11:50 PM12.2 °F8.6 °F85 %29.77 in6.2 miSW (220°)5.8 mph
Hourly data recorded from LOWI, located miles away from Innsbruck, Austria







STORIES FROM OUR PARTNERS